Location: Zagreb
(45.8150°N, 15.9819°E)
Time: 13:40:44
(UTC+02:00)

STARLINK-1725 - Pass Details

Date: 20 September 2020
Orbit: 378 x 381 km, 53.0° (Epoch: 20 October)

Event Time Altitude Azimuth Distance (km) Brightness Sun altitude
Exits shadow 04:18:35 26° 32° (NNE) 798 5.0 -24.5°
Drops below altitude 10° 04:20:16 10° 50° (NE) 1,404 6.7 -24.2°
Sets 04:22:23 0° 58° (ENE) 2,260 8.2 -23.9°
